Location: Kalberh�ni
(46.4610°N, 7.2453°E)
Time: 06:10:29
(UTC+00:00)

FALCON 9 DEB - Pass Details

Date: 28 October 2021
Orbit: 344 x 354 km, 53.0° (Epoch: 30 November)

Event Time Altitude Azimuth Distance (km) Brightness Sun altitude
Rises 16:55:37 0° 212° (SSW) 2,154 7.4 -6.4°
Reaches altitude 10° 16:57:46 10° 200° (SSW) 1,321 6.0 -6.8°
Maximum altitude 17:00:20 27° 139° (SE) 719 4.0 -7.2°
Enters shadow 17:02:52 11° 79° (E) 1,312 4.9 -7.6°
